Location: ????????
(56.1167°N, 38.6333°E)
Time: 04:16:39
(UTC+00:00)

ISS - Visible Passes

Search period start: 19 February 2026 00:00
Search period end: 01 March 2026 00:00
Orbit: 413 x 428 km, 51.6° (Epoch: 18 February)

Date Brightness Start Highest point End Pass type
(mag) Time Alt. Az. Time Alt. Az. Time Alt. Az.
19 Feb -0.8 01:36:17 12° SE 01:36:17 12° SE 01:36:55 10° ESE visible
19 Feb -2.3 03:09:16 15° SW 03:11:31 30° SSE 03:14:30 10° ESE visible
20 Feb -2.2 02:24:00 25° S 02:24:29 26° SSE 02:27:18 10° ESE visible
20 Feb -2.7 03:57:42 10° WSW 04:00:51 38° S 04:03:59 10° ESE visible
21 Feb -1.3 01:38:40 17° SE 01:38:40 17° SE 01:40:03 10° ESE visible
21 Feb -2.7 03:11:38 17° SW 03:13:45 37° S 03:16:52 10° ESE visible
22 Feb -2.8 02:26:15 33° S 02:26:39 34° S 02:29:43 10° ESE visible
23 Feb -1.7 01:40:50 23° SE 01:40:50 23° SE 01:42:31 10° ESE visible
23 Feb -2.8 03:13:48 17° WSW 03:15:56 37° S 03:19:03 10° ESE visible
24 Feb -3.0 02:28:21 36° SSW 02:28:47 38° S 02:31:55 10° ESE visible
25 Feb -1.9 01:42:53 26° SE 01:42:53 26° SE 01:44:44 10° ESE visible
25 Feb -2.5 03:15:51 15° WSW 03:18:01 30° SSW 03:20:59 10° SE visible
26 Feb -0.5 00:57:25 11° ESE 00:57:25 11° ESE 00:57:31 10° ESE visible
26 Feb -2.9 02:30:23 32° SSW 02:30:51 34° S 02:33:55 10° SE visible
27 Feb -2.0 01:44:56 26° SE 01:44:56 26° SE 01:46:46 10° ESE visible
27 Feb -2.1 03:17:54 13° WSW 03:19:56 21° SSW 03:22:30 10° SSE visible
28 Feb -0.6 00:59:30 10° ESE 00:59:30 10° ESE 00:59:34 10° ESE visible
28 Feb -2.5 02:32:29 25° SSW 02:32:46 25° SSW 02:35:35 10° SE visible
